Time,TemperatureF,DewpointF,PressureIn,WindDirection,WindDirectionDegrees,WindSpeedMPH,WindSpeedGustMPH,Humidity,HourlyPrecipIn,Conditions,Clouds,dailyrainin,SoftwareType,DateUTC
2013-08-29 00:01:00,61.3,33.5,30.20,WSW,241,0.0,0.0,35,0.00,,---,0.00,VWS V13.00,2013-08-29 06:01:00,
2013-08-29 00:06:00,61.2,34.0,30.20,WSW,242,0.0,0.0,36,0.00,,---,0.00,VWS V13.00,2013-08-29 06:06:00,
2013-08-29 00:11:00,61.0,34.5,30.20,WSW,239,0.0,0.0,37,0.00,,---,0.00,VWS V13.00,2013-08-29 06:11:00,
2013-08-29 00:17:00,60.6,34.9,30.20,WSW,239,0.0,0.0,38,0.00,,---,0.00,VWS V13.00,2013-08-29 06:17:00,
2013-08-29 00:22:00,60.4,35.4,30.20,WSW,239,0.0,0.0,39,0.00,,---,0.00,VWS V13.00,2013-08-29 06:22:00,
2013-08-29 00:27:00,60.1,35.1,30.20,WSW,239,0.0,0.0,39,0.00,,---,0.00,VWS V13.00,2013-08-29 06:27:00,
2013-08-29 00:32:00,59.9,34.9,30.20,SW,215,0.0,0.0,39,0.00,,---,0.00,VWS V13.00,2013-08-29 06:32:00,
2013-08-29 00:37:00,59.9,34.2,30.20,SW,215,0.0,0.0,38,0.00,,---,0.00,VWS V13.00,2013-08-29 06:37:00,
2013-08-29 00:42:00,59.9,34.2,30.20,SW,222,0.0,0.0,38,0.00,,---,0.00,VWS V13.00,2013-08-29 06:42:00,
2013-08-29 00:47:00,59.5,33.9,30.20,SW,222,0.0,0.0,38,0.00,,---,0.00,VWS V13.00,2013-08-29 06:47:00,
2013-08-29 00:52:00,59.4,33.8,30.20,SW,222,0.0,0.0,38,0.00,,---,0.00,VWS V13.00,2013-08-29 06:52:00,
2013-08-29 00:57:00,59.4,34.4,30.20,SW,222,0.0,0.0,39,0.00,,---,0.00,VWS V13.00,2013-08-29 06:57:00,
2013-08-29 01:02:00,59.2,34.3,30.20,SW,222,0.0,0.0,39,0.00,,---,0.00,VWS V13.00,2013-08-29 07:02:00,
2013-08-29 01:08:00,59.4,33.8,30.20,SW,222,0.0,0.0,38,0.00,,---,0.00,VWS V13.00,2013-08-29 07:08:00,
2013-08-29 01:13:00,59.2,33.0,30.20,SW,222,0.0,0.0,37,0.00,,---,0.00,VWS V13.00,2013-08-29 07:13:00,
2013-08-29 01:18:00,58.6,33.1,30.20,SW,222,0.0,0.0,38,0.00,,---,0.00,VWS V13.00,2013-08-29 07:18:00,
2013-08-29 01:23:00,58.3,32.8,30.20,SW,222,0.0,0.0,38,0.00,,---,0.00,VWS V13.00,2013-08-29 07:23:00,
2013-08-29 01:28:00,58.1,33.3,30.20,SW,222,0.0,0.0,39,0.00,,---,0.00,VWS V13.00,2013-08-29 07:28:00,
2013-08-29 01:33:00,58.1,33.9,30.20,SW,222,0.0,0.0,40,0.00,,---,0.00,VWS V13.00,2013-08-29 07:33:00,
2013-08-29 01:38:00,57.9,33.8,30.20,SW,222,0.0,0.0,40,0.00,,---,0.00,VWS V13.00,2013-08-29 07:38:00,
2013-08-29 01:43:00,57.7,33.6,30.20,SW,222,0.0,0.0,40,0.00,,---,0.00,VWS V13.00,2013-08-29 07:43:00,
2013-08-29 01:48:00,57.6,34.1,30.20,SW,222,0.0,0.0,41,0.00,,---,0.00,VWS V13.00,2013-08-29 07:48:00,
2013-08-29 01:53:00,57.6,34.1,30.20,SW,222,0.0,0.0,41,0.00,,---,0.00,VWS V13.00,2013-08-29 07:53:00,
2013-08-29 01:58:00,57.6,34.1,30.20,SW,222,0.0,0.0,41,0.00,,---,0.00,VWS V13.00,2013-08-29 07:58:00,
2013-08-29 02:03:00,57.6,34.7,30.20,SW,222,0.0,0.0,42,0.00,,---,0.00,VWS V13.00,2013-08-29 08:03:00,
2013-08-29 02:08:00,57.6,34.1,30.20,SW,222,0.0,0.0,41,0.00,,---,0.00,VWS V13.00,2013-08-29 08:08:00,
2013-08-29 02:13:00,57.4,33.3,30.20,SW,222,0.0,0.0,40,0.00,,---,0.00,VWS V13.00,2013-08-29 08:13:00,
2013-08-29 02:18:00,57.2,33.1,30.20,SW,222,0.0,0.0,40,0.00,,---,0.00,VWS V13.00,2013-08-29 08:18:00,
2013-08-29 02:23:00,56.8,32.8,30.20,SW,222,0.0,0.0,40,0.00,,---,0.00,VWS V13.00,2013-08-29 08:23:00,
2013-08-29 02:28:00,56.5,33.1,30.20,SW,222,0.0,0.0,41,0.00,,---,0.00,VWS V13.00,2013-08-29 08:28:00,
2013-08-29 02:34:00,56.3,34.1,30.20,SW,222,0.0,0.0,43,0.00,,---,0.00,VWS V13.00,2013-08-29 08:34:00,
2013-08-29 02:39:00,55.9,34.4,30.20,SW,222,0.0,0.0,44,0.00,,---,0.00,VWS V13.00,2013-08-29 08:39:00,
2013-08-29 02:44:00,55.8,34.2,30.23,SW,222,0.0,0.0,44,0.00,,---,0.00,VWS V13.00,2013-08-29 08:44:00,
2013-08-29 02:49:00,55.6,35.2,30.23,SW,222,0.0,0.0,46,0.00,,---,0.00,VWS V13.00,2013-08-29 08:49:00,
2013-08-29 02:54:00,55.4,34.4,30.23,SW,222,0.0,0.0,45,0.00,,---,0.00,VWS V13.00,2013-08-29 08:54:00,
2013-08-29 02:59:00,55.2,34.8,30.23,SW,222,0.0,0.0,46,0.00,,---,0.00,VWS V13.00,2013-08-29 08:59:00,
2013-08-29 03:04:00,55.0,34.7,30.23,SW,222,0.0,0.0,46,0.00,,---,0.00,VWS V13.00,2013-08-29 09:04:00,
2013-08-29 03:09:00,54.9,35.0,30.23,SW,222,0.0,0.0,47,0.00,,---,0.00,VWS V13.00,2013-08-29 09:09:00,
2013-08-29 03:14:00,54.5,34.7,30.23,SW,222,0.0,0.0,47,0.00,,---,0.00,VWS V13.00,2013-08-29 09:14:00,
2013-08-29 03:19:00,54.3,34.5,30.23,SW,222,0.0,0.0,47,0.00,,---,0.00,VWS V13.00,2013-08-29 09:19:00,
2013-08-29 03:24:00,54.3,34.5,30.23,SW,222,0.0,0.0,47,0.00,,---,0.00,VWS V13.00,2013-08-29 09:24:00,
2013-08-29 03:29:00,54.3,34.5,30.23,SW,222,0.0,0.0,47,0.00,,---,0.00,VWS V13.00,2013-08-29 09:29:00,
2013-08-29 03:34:00,54.3,35.1,30.23,SW,222,0.0,0.0,48,0.00,,---,0.00,VWS V13.00,2013-08-29 09:34:00,
2013-08-29 03:39:00,54.1,34.9,30.23,SW,222,0.0,0.0,48,0.00,,---,0.00,VWS V13.00,2013-08-29 09:39:00,
2013-08-29 03:44:00,54.1,35.4,30.23,SW,222,0.0,0.0,49,0.00,,---,0.00,VWS V13.00,2013-08-29 09:44:00,
2013-08-29 03:49:00,54.0,35.2,30.23,SW,222,0.0,0.0,49,0.00,,---,0.00,VWS V13.00,2013-08-29 09:49:00,
2013-08-29 03:55:00,54.0,35.8,30.23,SW,222,0.0,0.0,50,0.00,,---,0.00,VWS V13.00,2013-08-29 09:55:00,
2013-08-29 04:00:00,53.8,35.6,30.23,SW,222,0.0,0.0,50,0.00,,---,0.00,VWS V13.00,2013-08-29 10:00:00,
2013-08-29 04:05:00,53.6,35.4,30.23,SW,222,0.0,0.0,50,0.00,,---,0.00,VWS V13.00,2013-08-29 10:05:00,
2013-08-29 04:10:00,53.4,35.8,30.23,SW,222,0.0,0.0,51,0.00,,---,0.00,VWS V13.00,2013-08-29 10:10:00,
2013-08-29 04:15:00,53.2,35.6,30.23,SW,222,0.0,0.0,51,0.00,,---,0.00,VWS V13.00,2013-08-29 10:15:00,
2013-08-29 04:20:00,53.2,35.6,30.23,SW,222,0.0,0.0,51,0.00,,---,0.00,VWS V13.00,2013-08-29 10:20:00,
2013-08-29 04:25:00,53.1,35.4,30.23,SW,222,0.0,0.0,51,0.00,,---,0.00,VWS V13.00,2013-08-29 10:25:00,
2013-08-29 04:30:00,53.1,35.4,30.23,SW,222,0.0,0.0,51,0.00,,---,0.00,VWS V13.00,2013-08-29 10:30:00,
2013-08-29 04:35:00,52.9,35.3,30.23,SW,222,0.0,0.0,51,0.00,,---,0.00,VWS V13.00,2013-08-29 10:35:00,
2013-08-29 04:40:00,52.9,35.3,30.23,SW,222,0.0,0.0,51,0.00,,---,0.00,VWS V13.00,2013-08-29 10:40:00,
2013-08-29 04:45:00,52.7,34.6,30.23,SW,222,0.0,0.0,50,0.00,,---,0.00,VWS V13.00,2013-08-29 10:45:00,
2013-08-29 04:50:00,52.7,35.1,30.23,SW,222,0.0,0.0,51,0.00,,---,0.00,VWS V13.00,2013-08-29 10:50:00,
2013-08-29 04:55:00,52.3,34.8,30.23,SW,222,0.0,0.0,51,0.00,,---,0.00,VWS V13.00,2013-08-29 10:55:00,
2013-08-29 05:00:00,52.2,34.6,30.23,SW,222,0.0,0.0,51,0.00,,---,0.00,VWS V13.00,2013-08-29 11:00:00,
2013-08-29 05:05:00,52.0,34.4,30.23,SW,222,0.0,0.0,51,0.00,,---,0.00,VWS V13.00,2013-08-29 11:05:00,
2013-08-29 05:10:00,51.8,34.3,30.23,SW,222,0.0,0.0,51,0.00,,---,0.00,VWS V13.00,2013-08-29 11:10:00,
2013-08-29 05:16:00,51.6,34.6,30.23,SW,222,0.0,0.0,52,0.00,,---,0.00,VWS V13.00,2013-08-29 11:16:00,
2013-08-29 05:21:00,51.6,34.6,30.23,SW,222,0.0,0.0,52,0.00,,---,0.00,VWS V13.00,2013-08-29 11:21:00,
2013-08-29 05:26:00,51.6,35.1,30.23,SW,222,0.0,0.0,53,0.00,,---,0.00,VWS V13.00,2013-08-29 11:26:00,
2013-08-29 05:31:00,51.4,34.9,30.23,SW,222,0.0,0.0,53,0.00,,---,0.00,VWS V13.00,2013-08-29 11:31:00,
2013-08-29 05:36:00,51.4,35.4,30.23,SW,222,0.0,0.0,54,0.00,,---,0.00,VWS V13.00,2013-08-29 11:36:00,
2013-08-29 05:41:00,51.6,35.5,30.23,SW,222,0.0,0.0,54,0.00,,---,0.00,VWS V13.00,2013-08-29 11:41:00,
2013-08-29 05:46:00,51.4,35.4,30.23,SW,222,0.0,0.0,54,0.00,,---,0.00,VWS V13.00,2013-08-29 11:46:00,
2013-08-29 05:51:00,51.4,35.8,30.23,SW,222,0.0,0.0,55,0.00,,---,0.00,VWS V13.00,2013-08-29 11:51:00,
2013-08-29 05:56:00,51.3,35.7,30.23,SW,222,0.0,0.0,55,0.00,,---,0.00,VWS V13.00,2013-08-29 11:56:00,
2013-08-29 06:01:00,51.3,36.1,30.23,SW,222,0.0,0.0,56,0.00,,---,0.00,VWS V13.00,2013-08-29 12:01:00,
2013-08-29 06:06:00,50.9,35.3,30.23,SW,222,0.0,0.0,55,0.00,,---,0.00,VWS V13.00,2013-08-29 12:06:00,
2013-08-29 06:11:00,50.7,35.2,30.23,SW,222,0.0,0.0,55,0.00,,---,0.00,VWS V13.00,2013-08-29 12:11:00,
2013-08-29 06:16:00,50.5,35.0,30.23,SW,222,0.0,0.0,55,0.00,,---,0.00,VWS V13.00,2013-08-29 12:16:00,
2013-08-29 06:21:00,50.5,35.0,30.23,SW,222,0.0,0.0,55,0.00,,---,0.00,VWS V13.00,2013-08-29 12:21:00,
2013-08-29 06:26:00,50.4,34.8,30.23,SW,222,0.0,0.0,55,0.00,,---,0.00,VWS V13.00,2013-08-29 12:26:00,
2013-08-29 06:31:00,50.4,34.8,30.23,SW,222,0.0,0.0,55,0.00,,---,0.00,VWS V13.00,2013-08-29 12:31:00,
2013-08-29 06:36:00,50.4,34.8,30.23,SW,222,0.0,0.0,55,0.00,,---,0.00,VWS V13.00,2013-08-29 12:36:00,
2013-08-29 06:41:00,50.4,34.8,30.23,SW,222,0.0,0.0,55,0.00,,---,0.00,VWS V13.00,2013-08-29 12:41:00,
2013-08-29 06:47:00,50.2,35.1,30.23,SW,222,0.0,0.0,56,0.00,,---,0.00,VWS V13.00,2013-08-29 12:47:00,
2013-08-29 06:52:00,50.4,35.3,30.23,SW,222,0.0,0.0,56,0.00,,---,0.00,VWS V13.00,2013-08-29 12:52:00,
2013-08-29 06:57:00,50.4,35.3,30.26,SW,222,0.0,0.0,56,0.00,,---,0.00,VWS V13.00,2013-08-29 12:57:00,
2013-08-29 07:02:00,50.4,35.7,30.26,SW,222,0.0,0.0,57,0.00,,---,0.00,VWS V13.00,2013-08-29 13:02:00,
2013-08-29 07:07:00,50.5,35.9,30.26,SW,222,0.0,0.0,57,0.00,,---,0.00,VWS V13.00,2013-08-29 13:07:00,
2013-08-29 07:12:00,50.7,36.1,30.26,SW,222,0.0,0.0,57,0.00,,---,0.00,VWS V13.00,2013-08-29 13:12:00,
2013-08-29 07:17:00,50.9,36.2,30.26,SW,222,0.0,0.0,57,0.00,,---,0.00,VWS V13.00,2013-08-29 13:17:00,
2013-08-29 07:22:00,51.3,36.6,30.26,SW,222,0.0,0.0,57,0.00,,---,0.00,VWS V13.00,2013-08-29 13:22:00,
2013-08-29 07:27:00,51.6,37.3,30.26,SW,222,0.0,0.0,58,0.00,,---,0.00,VWS V13.00,2013-08-29 13:27:00,
2013-08-29 07:32:00,52.0,37.2,30.26,SW,220,0.0,0.0,57,0.00,,---,0.00,VWS V13.00,2013-08-29 13:32:00,
2013-08-29 07:37:00,52.2,37.0,30.26,SW,220,0.0,0.0,56,0.00,,---,0.00,VWS V13.00,2013-08-29 13:37:00,
2013-08-29 07:42:00,52.3,36.7,30.26,SW,220,0.0,0.0,55,0.00,,---,0.00,VWS V13.00,2013-08-29 13:42:00,
2013-08-29 07:47:00,53.1,37.3,30.26,SW,220,0.0,0.0,55,0.00,,---,0.00,VWS V13.00,2013-08-29 13:47:00,
2013-08-29 07:52:00,53.8,37.5,30.26,SW,220,0.0,0.0,54,0.00,,---,0.00,VWS V13.00,2013-08-29 13:52:00,
2013-08-29 07:57:00,54.1,37.4,30.26,SW,220,0.0,0.0,53,0.00,,---,0.00,VWS V13.00,2013-08-29 13:57:00,
2013-08-29 08:02:00,54.7,36.9,30.26,SW,220,0.0,0.0,51,0.00,,---,0.00,VWS V13.00,2013-08-29 14:02:00,
2013-08-29 08:07:00,55.2,36.4,30.26,SW,220,0.0,0.0,49,0.00,,---,0.00,VWS V13.00,2013-08-29 14:07:00,
2013-08-29 08:12:00,55.6,35.2,30.26,SW,220,0.0,0.0,46,0.00,,---,0.00,VWS V13.00,2013-08-29 14:12:00,
2013-08-29 08:17:00,56.1,35.1,30.26,SW,220,0.0,0.0,45,0.00,,---,0.00,VWS V13.00,2013-08-29 14:17:00,
2013-08-29 08:23:00,57.0,34.8,30.26,SW,218,0.0,0.0,43,0.00,,---,0.00,VWS V13.00,2013-08-29 14:23:00,
2013-08-29 08:28:00,57.2,33.7,30.26,SW,218,0.0,0.0,41,0.00,,---,0.00,VWS V13.00,2013-08-29 14:28:00,
2013-08-29 08:33:00,57.4,33.3,30.26,SW,218,0.0,0.0,40,0.00,,---,0.00,VWS V13.00,2013-08-29 14:33:00,
2013-08-29 08:38:00,57.6,33.4,30.26,SW,218,0.0,0.0,40,0.00,,---,0.00,VWS V13.00,2013-08-29 14:38:00,
2013-08-29 08:43:00,57.9,33.8,30.26,SW,218,0.0,0.0,40,0.00,,---,0.00,VWS V13.00,2013-08-29 14:43:00,
2013-08-29 08:48:00,58.3,33.5,30.26,SE,138,0.0,0.0,39,0.00,,---,0.00,VWS V13.00,2013-08-29 14:48:00,
2013-08-29 08:53:00,58.6,33.1,30.26,WSW,246,0.0,0.0,38,0.00,,---,0.00,VWS V13.00,2013-08-29 14:53:00,
2013-08-29 08:58:00,59.4,33.1,30.26,WSW,246,0.0,0.0,37,0.00,,---,0.00,VWS V13.00,2013-08-29 14:58:00,
2013-08-29 09:03:00,60.1,33.1,30.26,WSW,243,0.0,0.0,36,0.00,,---,0.00,VWS V13.00,2013-08-29 15:03:00,
2013-08-29 09:08:00,60.8,33.7,30.26,West,265,0.0,0.0,36,0.00,,---,0.00,VWS V13.00,2013-08-29 15:08:00,
2013-08-29 09:13:00,61.3,33.5,30.26,West,265,0.0,2.2,35,0.00,,---,0.00,VWS V13.00,2013-08-29 15:13:00,
2013-08-29 09:18:00,61.9,33.2,30.26,West,265,0.0,0.0,34,0.00,,---,0.00,VWS V13.00,2013-08-29 15:18:00,
2013-08-29 09:23:00,62.6,33.1,30.26,WSW,257,0.0,0.0,33,0.00,,---,0.00,VWS V13.00,2013-08-29 15:23:00,
2013-08-29 09:28:00,63.5,31.5,30.26,WSW,253,0.0,0.0,30,0.00,,---,0.00,VWS V13.00,2013-08-29 15:28:00,
2013-08-29 09:33:00,64.2,30.5,30.26,West,267,0.0,2.2,28,0.00,,---,0.00,VWS V13.00,2013-08-29 15:33:00,
2013-08-29 09:38:00,64.9,30.2,30.26,WSW,246,0.0,0.0,27,0.00,,---,0.00,VWS V13.00,2013-08-29 15:38:00,
2013-08-29 09:43:00,65.8,31.0,30.26,WSW,247,0.0,2.2,27,0.00,,---,0.00,VWS V13.00,2013-08-29 15:43:00,
2013-08-29 09:49:00,67.3,32.2,30.26,WSW,247,0.0,0.0,27,0.00,,---,0.00,VWS V13.00,2013-08-29 15:49:00,
2013-08-29 09:54:00,68.0,29.9,30.26,SW,231,0.0,0.0,24,0.00,,---,0.00,VWS V13.00,2013-08-29 15:54:00,
2013-08-29 09:59:00,68.5,29.3,30.26,South,174,0.0,0.0,23,0.00,,---,0.00,VWS V13.00,2013-08-29 15:59:00,
2013-08-29 10:04:00,69.3,29.9,30.26,East,90,0.0,0.0,23,0.00,,---,0.00,VWS V13.00,2013-08-29 16:04:00,
2013-08-29 10:09:00,70.2,30.7,30.26,West,265,2.7,3.1,23,0.00,,---,0.00,VWS V13.00,2013-08-29 16:09:00,
2013-08-29 10:14:00,71.1,31.4,30.26,West,261,2.2,2.2,23,0.00,,---,0.00,VWS V13.00,2013-08-29 16:14:00,
2013-08-29 10:19:00,71.6,30.8,30.26,WSW,250,2.2,2.2,22,0.00,,---,0.00,VWS V13.00,2013-08-29 16:19:00,
2013-08-29 10:24:00,72.1,30.1,30.23,WSW,251,0.0,0.0,21,0.00,,---,0.00,VWS V13.00,2013-08-29 16:24:00,
2013-08-29 10:29:00,72.5,30.4,30.23,WSW,249,0.0,2.7,21,0.00,,---,0.00,VWS V13.00,2013-08-29 16:29:00,
2013-08-29 10:34:00,73.2,31.0,30.23,WSW,251,0.0,0.0,21,0.00,,---,0.00,VWS V13.00,2013-08-29 16:34:00,
2013-08-29 10:39:00,74.3,28.1,30.23,SW,236,0.0,0.0,18,0.00,,---,0.00,VWS V13.00,2013-08-29 16:39:00,
2013-08-29 10:44:00,74.7,28.4,30.23,ESE,105,2.7,3.1,18,0.00,,---,0.00,VWS V13.00,2013-08-29 16:44:00,
2013-08-29 10:49:00,75.4,29.0,30.23,East,95,0.0,2.2,18,0.00,,---,0.00,VWS V13.00,2013-08-29 16:49:00,
2013-08-29 10:54:00,75.7,29.3,30.23,West,260,0.0,3.1,18,0.00,,---,0.00,VWS V13.00,2013-08-29 16:54:00,
2013-08-29 10:59:00,75.9,25.0,30.23,WSW,257,0.0,0.0,15,0.00,,---,0.00,VWS V13.00,2013-08-29 16:59:00,
2013-08-29 11:04:00,75.7,24.9,30.23,WSW,247,0.0,0.0,15,0.00,,---,0.00,VWS V13.00,2013-08-29 17:04:00,
2013-08-29 11:10:00,76.6,30.0,30.23,West,265,3.1,3.6,18,0.00,,---,0.00,VWS V13.00,2013-08-29 17:10:00,
2013-08-29 11:15:00,77.4,26.1,30.23,West,263,0.0,3.1,15,0.00,,---,0.00,VWS V13.00,2013-08-29 17:15:00,
2013-08-29 11:20:00,77.7,26.4,30.23,West,263,3.6,3.6,15,0.00,,---,0.00,VWS V13.00,2013-08-29 17:20:00,
2013-08-29 11:25:00,78.1,26.7,30.23,West,259,0.0,2.2,15,0.00,,---,0.00,VWS V13.00,2013-08-29 17:25:00,
2013-08-29 11:30:00,78.6,27.1,30.23,WSW,253,3.1,3.6,15,0.00,,---,0.00,VWS V13.00,2013-08-29 17:30:00,
2013-08-29 11:35:00,79.2,27.6,30.23,West,269,0.0,3.1,15,0.00,,---,0.00,VWS V13.00,2013-08-29 17:35:00,
2013-08-29 11:40:00,79.0,27.4,30.20,West,266,0.0,3.1,15,0.00,,---,0.00,VWS V13.00,2013-08-29 17:40:00,
2013-08-29 11:45:00,79.7,28.0,30.20,SSW,201,2.2,2.2,15,0.00,,---,0.00,VWS V13.00,2013-08-29 17:45:00,
2013-08-29 11:50:00,80.6,27.0,30.20,WSW,244,0.0,2.2,14,0.00,,---,0.00,VWS V13.00,2013-08-29 17:50:00,
2013-08-29 11:55:00,81.3,27.6,30.20,WSW,252,3.1,3.6,14,0.00,,---,0.00,VWS V13.00,2013-08-29 17:55:00,
2013-08-29 12:00:00,81.9,28.0,30.20,SSE,158,2.2,2.2,14,0.00,,---,0.00,VWS V13.00,2013-08-29 18:00:00,
2013-08-29 12:05:00,81.7,27.9,30.20,SE,140,0.0,0.0,14,0.00,,---,0.00,VWS V13.00,2013-08-29 18:05:00,
2013-08-29 12:10:00,82.4,28.5,30.20,SSW,192,0.0,0.0,14,0.00,,---,0.00,VWS V13.00,2013-08-29 18:10:00,
2013-08-29 12:15:00,82.8,28.8,30.20,SSW,212,0.0,0.0,14,0.00,,---,0.00,VWS V13.00,2013-08-29 18:15:00,
2013-08-29 12:20:00,83.3,29.2,30.20,West,263,3.1,4.9,14,0.00,,---,0.00,VWS V13.00,2013-08-29 18:20:00,
2013-08-29 12:26:00,83.7,29.5,30.20,ESE,110,0.0,2.7,14,0.00,,---,0.00,VWS V13.00,2013-08-29 18:26:00,
2013-08-29 12:31:00,84.0,29.8,30.20,West,265,3.6,3.6,14,0.00,,---,0.00,VWS V13.00,2013-08-29 18:31:00,
2013-08-29 12:36:00,83.8,29.6,30.20,West,261,0.0,2.2,14,0.00,,---,0.00,VWS V13.00,2013-08-29 18:36:00,
2013-08-29 12:41:00,84.2,28.1,30.20,West,261,0.0,0.0,13,0.00,,---,0.00,VWS V13.00,2013-08-29 18:41:00,
2013-08-29 12:46:00,84.7,28.5,30.20,SW,235,0.0,2.7,13,0.00,,---,0.00,VWS V13.00,2013-08-29 18:46:00,
2013-08-29 12:51:00,84.9,28.6,30.20,WSW,244,2.2,2.7,13,0.00,,---,0.00,VWS V13.00,2013-08-29 18:51:00,
2013-08-29 12:56:00,84.9,24.6,30.17,East,101,0.0,0.0,11,0.00,,---,0.00,VWS V13.00,2013-08-29 18:56:00,
2013-08-29 13:01:00,85.3,24.9,30.17,SSW,208,2.2,2.2,11,0.00,,---,0.00,VWS V13.00,2013-08-29 19:01:00,
2013-08-29 13:06:00,85.6,25.2,30.17,WSW,256,3.1,3.1,11,0.00,,---,0.00,VWS V13.00,2013-08-29 19:06:00,
2013-08-29 13:11:00,86.2,25.6,30.17,West,262,2.2,3.6,11,0.00,,---,0.00,VWS V13.00,2013-08-29 19:11:00,
2013-08-29 13:16:00,86.5,25.9,30.17,WSW,251,2.7,3.6,11,0.00,,---,0.00,VWS V13.00,2013-08-29 19:16:00,
2013-08-29 13:21:00,86.9,26.1,30.17,WSW,242,0.0,3.1,11,0.00,,---,0.00,VWS V13.00,2013-08-29 19:21:00,
2013-08-29 13:26:00,87.1,26.3,30.17,West,271,2.7,3.1,11,0.00,,---,0.00,VWS V13.00,2013-08-29 19:26:00,
2013-08-29 13:31:00,87.3,30.5,30.17,WSW,253,3.6,4.9,13,0.00,,---,0.00,VWS V13.00,2013-08-29 19:31:00,
2013-08-29 13:36:00,88.0,24.7,30.17,West,276,0.0,0.0,10,0.00,,---,0.00,VWS V13.00,2013-08-29 19:36:00,
2013-08-29 13:41:00,88.5,25.1,30.17,ESE,109,0.0,2.7,10,0.00,,---,0.00,VWS V13.00,2013-08-29 19:41:00,
2013-08-29 13:46:00,89.1,25.5,30.17,South,189,2.7,3.1,10,0.00,,---,0.00,VWS V13.00,2013-08-29 19:46:00,
2013-08-29 13:51:00,89.4,25.8,30.17,WSW,250,3.1,3.6,10,0.00,,---,0.00,VWS V13.00,2013-08-29 19:51:00,
2013-08-29 13:57:00,89.4,25.8,30.17,ENE,70,3.1,3.1,10,0.00,,---,0.00,VWS V13.00,2013-08-29 19:57:00,
2013-08-29 14:02:00,89.6,25.9,30.17,WSW,254,2.7,4.9,10,0.00,,---,0.00,VWS V13.00,2013-08-29 20:02:00,
2013-08-29 14:07:00,89.1,25.5,30.17,West,260,2.7,4.0,10,0.00,,---,0.00,VWS V13.00,2013-08-29 20:07:00,
2013-08-29 14:12:00,87.6,26.7,30.17,West,265,3.1,3.6,11,0.00,,---,0.00,VWS V13.00,2013-08-29 20:12:00,
2013-08-29 14:17:00,87.6,26.7,30.17,West,260,3.6,3.6,11,0.00,,---,0.00,VWS V13.00,2013-08-29 20:17:00,
2013-08-29 14:22:00,87.8,24.5,30.17,West,261,2.7,3.1,10,0.00,,---,0.00,VWS V13.00,2013-08-29 20:22:00,
2013-08-29 14:27:00,87.3,26.4,30.14,West,259,2.2,2.2,11,0.00,,---,0.00,VWS V13.00,2013-08-29 20:27:00,
2013-08-29 14:32:00,87.1,26.3,30.14,West,260,4.0,4.0,11,0.00,,---,0.00,VWS V13.00,2013-08-29 20:32:00,
2013-08-29 14:37:00,87.1,26.3,30.14,West,266,3.1,3.1,11,0.00,,---,0.00,VWS V13.00,2013-08-29 20:37:00,
2013-08-29 14:42:00,86.9,26.1,30.14,West,261,3.1,3.1,11,0.00,,---,0.00,VWS V13.00,2013-08-29 20:42:00,
2013-08-29 14:47:00,86.4,25.7,30.14,West,261,0.0,0.0,11,0.00,,---,0.00,VWS V13.00,2013-08-29 20:47:00,
2013-08-29 14:52:00,86.0,25.4,30.14,ESE,120,0.0,0.0,11,0.00,,---,0.00,VWS V13.00,2013-08-29 20:52:00,
2013-08-29 14:57:00,86.7,26.0,30.14,West,262,3.1,3.6,11,0.00,,---,0.00,VWS V13.00,2013-08-29 20:57:00,
2013-08-29 15:02:00,88.0,24.7,30.14,WSW,257,2.7,2.7,10,0.00,,---,0.00,VWS V13.00,2013-08-29 21:02:00,
2013-08-29 15:07:00,89.4,25.8,30.14,West,259,3.6,6.3,10,0.00,,---,0.00,VWS V13.00,2013-08-29 21:07:00,
2013-08-29 15:12:00,90.1,26.3,30.14,WSW,254,2.2,2.7,10,0.00,,---,0.00,VWS V13.00,2013-08-29 21:12:00,
2013-08-29 15:17:00,90.7,26.7,30.14,West,259,4.0,5.8,10,0.00,,---,0.00,VWS V13.00,2013-08-29 21:17:00,
2013-08-29 15:22:00,90.7,26.7,30.14,WNW,288,3.6,5.4,10,0.00,,---,0.00,VWS V13.00,2013-08-29 21:22:00,
2013-08-29 15:28:00,90.3,26.4,30.14,WSW,258,3.1,3.6,10,0.00,,---,0.00,VWS V13.00,2013-08-29 21:28:00,
2013-08-29 15:33:00,90.1,26.3,30.14,SW,219,0.0,2.2,10,0.00,,---,0.00,VWS V13.00,2013-08-29 21:33:00,
2013-08-29 15:38:00,89.4,25.8,30.14,West,271,2.7,3.6,10,0.00,,---,0.00,VWS V13.00,2013-08-29 21:38:00,
2013-08-29 15:43:00,89.2,25.6,30.14,WNW,296,0.0,4.0,10,0.00,,---,0.00,VWS V13.00,2013-08-29 21:43:00,
2013-08-29 15:48:00,89.2,25.6,30.14,ESE,110,2.7,6.3,10,0.00,,---,0.00,VWS V13.00,2013-08-29 21:48:00,
2013-08-29 15:53:00,88.9,25.3,30.14,SW,220,0.0,2.7,10,0.00,,---,0.00,VWS V13.00,2013-08-29 21:53:00,
2013-08-29 15:58:00,88.7,25.2,30.14,South,177,0.0,2.7,10,0.00,,---,0.00,VWS V13.00,2013-08-29 21:58:00,
2013-08-29 16:03:00,88.7,25.2,30.14,SE,130,2.2,4.0,10,0.00,,---,0.00,VWS V13.00,2013-08-29 22:03:00,
2013-08-29 16:08:00,88.7,25.2,30.14,East,97,2.7,2.7,10,0.00,,---,0.00,VWS V13.00,2013-08-29 22:08:00,
2013-08-29 16:13:00,88.5,25.1,30.14,SSE,164,2.2,2.7,10,0.00,,---,0.00,VWS V13.00,2013-08-29 22:13:00,
2013-08-29 16:18:00,88.3,24.9,30.14,WSW,253,2.7,2.7,10,0.00,,---,0.00,VWS V13.00,2013-08-29 22:18:00,
2013-08-29 16:23:00,88.3,24.9,30.14,WSW,244,2.7,4.9,10,0.00,,---,0.00,VWS V13.00,2013-08-29 22:23:00,
2013-08-29 16:28:00,88.3,24.9,30.14,WNW,299,2.7,3.6,10,0.00,,---,0.00,VWS V13.00,2013-08-29 22:28:00,
2013-08-29 16:33:00,88.2,24.8,30.14,West,259,2.2,2.7,10,0.00,,---,0.00,VWS V13.00,2013-08-29 22:33:00,
2013-08-29 16:38:00,87.8,24.5,30.14,ESE,108,2.2,2.7,10,0.00,,---,0.00,VWS V13.00,2013-08-29 22:38:00,
2013-08-29 16:43:00,87.6,26.7,30.14,East,97,2.7,2.7,11,0.00,,---,0.00,VWS V13.00,2013-08-29 22:43:00,
2013-08-29 16:49:00,87.3,26.4,30.14,ESE,104,0.0,0.0,11,0.00,,---,0.00,VWS V13.00,2013-08-29 22:49:00,
2013-08-29 16:54:00,87.1,26.3,30.14,West,262,2.2,3.6,11,0.00,,---,0.00,VWS V13.00,2013-08-29 22:54:00,
2013-08-29 16:59:00,87.1,26.3,30.14,WSW,256,2.2,2.2,11,0.00,,---,0.00,VWS V13.00,2013-08-29 22:59:00,
2013-08-29 17:04:00,87.1,26.3,30.14,SSE,149,3.1,4.0,11,0.00,,---,0.00,VWS V13.00,2013-08-29 23:04:00,
2013-08-29 17:09:00,86.7,26.0,30.11,West,260,2.7,3.6,11,0.00,,---,0.00,VWS V13.00,2013-08-29 23:09:00,
2013-08-29 17:14:00,86.5,25.9,30.11,ESE,110,2.2,2.7,11,0.00,,---,0.00,VWS V13.00,2013-08-29 23:14:00,
2013-08-29 17:19:00,86.4,25.7,30.11,ESE,106,0.0,2.7,11,0.00,,---,0.00,VWS V13.00,2013-08-29 23:19:00,
2013-08-29 17:24:00,86.4,25.7,30.11,WSW,257,0.0,2.2,11,0.00,,---,0.00,VWS V13.00,2013-08-29 23:24:00,
2013-08-29 17:29:00,86.5,25.9,30.11,West,268,0.0,3.6,11,0.00,,---,0.00,VWS V13.00,2013-08-29 23:29:00,
2013-08-29 17:34:00,86.9,26.1,30.11,West,259,2.2,2.7,11,0.00,,---,0.00,VWS V13.00,2013-08-29 23:34:00,
2013-08-29 17:39:00,87.1,26.3,30.11,WSW,249,0.0,4.9,11,0.00,,---,0.00,VWS V13.00,2013-08-29 23:39:00,
2013-08-29 17:44:00,86.9,26.1,30.11,ESE,106,0.0,2.2,11,0.00,,---,0.00,VWS V13.00,2013-08-29 23:44:00,
2013-08-29 17:50:00,86.9,26.1,30.11,WSW,258,0.0,2.2,11,0.00,,---,0.00,VWS V13.00,2013-08-29 23:50:00,
2013-08-29 17:55:00,87.1,26.3,30.11,West,280,3.6,5.4,11,0.00,,---,0.00,VWS V13.00,2013-08-29 23:55:00,
2013-08-29 18:00:00,86.9,26.1,30.11,WSW,256,2.7,3.1,11,0.00,,---,0.00,VWS V13.00,2013-08-30 00:00:00,
2013-08-29 18:05:00,86.9,26.1,30.11,WSW,252,2.7,3.6,11,0.00,,---,0.00,VWS V13.00,2013-08-30 00:05:00,
2013-08-29 18:10:00,86.7,26.0,30.11,West,268,3.6,4.0,11,0.00,,---,0.00,VWS V13.00,2013-08-30 00:10:00,
2013-08-29 18:15:00,86.4,25.7,30.11,West,270,3.1,3.1,11,0.00,,---,0.00,VWS V13.00,2013-08-30 00:15:00,
2013-08-29 18:20:00,85.8,25.3,30.11,WSW,255,0.0,2.7,11,0.00,,---,0.00,VWS V13.00,2013-08-30 00:20:00,
2013-08-29 18:25:00,85.5,25.0,30.14,WSW,248,2.7,2.7,11,0.00,,---,0.00,VWS V13.00,2013-08-30 00:25:00,
2013-08-29 18:30:00,85.3,24.9,30.14,West,269,0.0,3.6,11,0.00,,---,0.00,VWS V13.00,2013-08-30 00:30:00,
2013-08-29 18:35:00,84.9,24.6,30.14,West,273,2.7,2.7,11,0.00,,---,0.00,VWS V13.00,2013-08-30 00:35:00,
2013-08-29 18:41:00,84.6,24.3,30.14,West,270,2.7,3.6,11,0.00,,---,0.00,VWS V13.00,2013-08-30 00:41:00,
2013-08-29 18:46:00,84.2,24.0,30.14,West,263,0.0,3.6,11,0.00,,---,0.00,VWS V13.00,2013-08-30 00:46:00,
2013-08-29 18:51:00,83.8,23.8,30.14,WNW,298,0.0,2.7,11,0.00,,---,0.00,VWS V13.00,2013-08-30 00:51:00,
2013-08-29 18:56:00,83.7,23.6,30.14,WNW,292,0.0,0.0,11,0.00,,---,0.00,VWS V13.00,2013-08-30 00:56:00,
2013-08-29 19:01:00,83.3,23.4,30.14,West,262,2.7,3.1,11,0.00,,---,0.00,VWS V13.00,2013-08-30 01:01:00,
2013-08-29 19:06:00,83.1,23.2,30.14,West,263,2.2,2.2,11,0.00,,---,0.00,VWS V13.00,2013-08-30 01:06:00,
2013-08-29 19:11:00,83.1,23.2,30.14,West,265,0.0,0.0,11,0.00,,---,0.00,VWS V13.00,2013-08-30 01:11:00,
2013-08-29 19:16:00,82.8,23.0,30.14,West,265,0.0,0.0,11,0.00,,---,0.00,VWS V13.00,2013-08-30 01:16:00,
2013-08-29 19:21:00,82.2,24.6,30.14,WSW,244,5.8,6.3,12,0.00,,---,0.00,VWS V13.00,2013-08-30 01:21:00,
2013-08-29 19:26:00,80.8,23.5,30.14,East,97,2.2,3.6,12,0.00,,---,0.00,VWS V13.00,2013-08-30 01:26:00,
2013-08-29 19:31:00,79.5,22.5,30.14,ESE,118,4.0,8.7,12,0.00,,---,0.00,VWS V13.00,2013-08-30 01:31:00,
2013-08-29 19:36:00,78.8,22.0,30.14,West,264,5.4,6.3,12,0.00,,---,0.00,VWS V13.00,2013-08-30 01:36:00,
2013-08-29 19:42:00,78.4,23.6,30.17,SSW,207,4.0,5.8,13,0.00,,---,0.00,VWS V13.00,2013-08-30 01:42:00,
2013-08-29 19:47:00,77.7,23.0,30.17,West,264,2.7,2.7,13,0.00,,---,0.00,VWS V13.00,2013-08-30 01:47:00,
2013-08-29 19:52:00,77.2,22.6,30.17,SSE,157,2.2,3.1,13,0.00,,---,0.00,VWS V13.00,2013-08-30 01:52:00,
2013-08-29 19:57:00,75.9,21.6,30.20,NNW,332,0.0,4.0,13,0.00,,---,0.00,VWS V13.00,2013-08-30 01:57:00,
2013-08-29 20:02:00,75.0,20.9,30.20,SW,228,4.0,4.9,13,0.00,,---,0.00,VWS V13.00,2013-08-30 02:02:00,
2013-08-29 20:07:00,74.3,20.3,30.20,NW,316,3.6,5.4,13,0.00,,---,0.00,VWS V13.00,2013-08-30 02:07:00,
2013-08-29 20:12:00,73.8,19.9,30.20,SSW,197,6.3,6.3,13,0.00,,---,0.00,VWS V13.00,2013-08-30 02:12:00,
2013-08-29 20:17:00,73.6,19.8,30.20,SSW,201,0.0,5.8,13,0.00,,---,0.00,VWS V13.00,2013-08-30 02:17:00,
2013-08-29 20:22:00,73.4,19.6,30.20,East,93,0.0,2.2,13,0.00,,---,0.00,VWS V13.00,2013-08-30 02:22:00,
2013-08-29 20:27:00,73.0,21.1,30.20,West,278,0.0,4.0,14,0.00,,---,0.00,VWS V13.00,2013-08-30 02:27:00,
2013-08-29 20:32:00,72.9,20.9,30.20,WSW,237,3.6,3.6,14,0.00,,---,0.00,VWS V13.00,2013-08-30 02:32:00,
2013-08-29 20:38:00,72.9,20.9,30.20,SW,217,2.2,3.1,14,0.00,,---,0.00,VWS V13.00,2013-08-30 02:38:00,
2013-08-29 20:43:00,72.9,20.9,30.20,West,274,3.6,3.6,14,0.00,,---,0.00,VWS V13.00,2013-08-30 02:43:00,
2013-08-29 20:48:00,72.9,20.9,30.20,West,266,4.5,4.5,14,0.00,,---,0.00,VWS V13.00,2013-08-30 02:48:00,
2013-08-29 20:53:00,72.9,20.9,30.20,WSW,248,3.6,4.0,14,0.00,,---,0.00,VWS V13.00,2013-08-30 02:53:00,
2013-08-29 20:58:00,72.7,20.8,30.23,South,173,0.0,0.0,14,0.00,,---,0.00,VWS V13.00,2013-08-30 02:58:00,
2013-08-29 21:03:00,72.7,20.8,30.23,WSW,240,0.0,0.0,14,0.00,,---,0.00,VWS V13.00,2013-08-30 03:03:00,
2013-08-29 21:08:00,72.5,23.8,30.23,SE,139,0.0,0.0,16,0.00,,---,0.00,VWS V13.00,2013-08-30 03:08:00,
2013-08-29 21:13:00,72.1,20.4,30.23,WSW,250,0.0,0.0,14,0.00,,---,0.00,VWS V13.00,2013-08-30 03:13:00,
2013-08-29 21:18:00,71.8,20.1,30.23,ESE,102,0.0,0.0,14,0.00,,---,0.00,VWS V13.00,2013-08-30 03:18:00,
2013-08-29 21:23:00,71.2,24.2,30.23,ESE,117,2.7,2.7,17,0.00,,---,0.00,VWS V13.00,2013-08-30 03:23:00,
2013-08-29 21:29:00,70.7,23.8,30.23,SSE,147,2.7,3.6,17,0.00,,---,0.00,VWS V13.00,2013-08-30 03:29:00,
2013-08-29 21:34:00,70.2,23.4,30.23,NNW,329,2.7,2.7,17,0.00,,---,0.00,VWS V13.00,2013-08-30 03:34:00,
2013-08-29 21:39:00,69.6,22.9,30.23,WNW,282,0.0,2.7,17,0.00,,---,0.00,VWS V13.00,2013-08-30 03:39:00,
2013-08-29 21:44:00,69.3,22.6,30.23,WSW,254,0.0,0.0,17,0.00,,---,0.00,VWS V13.00,2013-08-30 03:44:00,
2013-08-29 21:49:00,68.9,22.3,30.23,ESE,112,0.0,2.7,17,0.00,,---,0.00,VWS V13.00,2013-08-30 03:49:00,
2013-08-29 21:54:00,68.7,22.2,30.26,SE,143,0.0,0.0,17,0.00,,---,0.00,VWS V13.00,2013-08-30 03:54:00,
2013-08-29 21:59:00,68.7,22.2,30.26,ENE,74,3.1,3.1,17,0.00,,---,0.00,VWS V13.00,2013-08-30 03:59:00,
2013-08-29 22:01:00,68.7,22.2,30.26,North,4,2.7,2.7,17,0.00,,---,0.00,VWS V13.00,2013-08-30 04:01:00,
2013-08-29 22:02:00,68.7,22.2,30.26,NE,51,3.1,3.1,17,0.00,,---,0.00,VWS V13.00,2013-08-30 04:02:00,
2013-08-29 22:03:00,68.7,22.2,30.26,NW,319,0.0,4.9,17,0.00,,---,0.00,VWS V13.00,2013-08-30 04:03:00,
2013-08-29 22:06:00,68.7,22.2,30.26,South,186,0.0,0.0,17,0.00,,---,0.00,VWS V13.00,2013-08-30 04:06:00,
2013-08-29 22:11:00,68.5,25.9,30.26,SSW,211,0.0,0.0,20,0.00,,---,0.00,VWS V13.00,2013-08-30 04:11:00,
2013-08-29 22:16:00,68.7,26.1,30.26,ENE,75,2.7,2.7,20,0.00,,---,0.00,VWS V13.00,2013-08-30 04:16:00,
2013-08-29 22:21:00,69.1,26.4,30.26,WNW,292,2.2,2.2,20,0.00,,---,0.00,VWS V13.00,2013-08-30 04:21:00,
2013-08-29 22:26:00,68.7,26.1,30.26,West,272,2.2,4.9,20,0.00,,---,0.00,VWS V13.00,2013-08-30 04:26:00,
2013-08-29 22:32:00,68.4,25.8,30.26,East,81,0.0,2.7,20,0.00,,---,0.00,VWS V13.00,2013-08-30 04:32:00,
2013-08-29 22:37:00,68.2,25.6,30.26,West,276,0.0,2.2,20,0.00,,---,0.00,VWS V13.00,2013-08-30 04:37:00,
2013-08-29 22:42:00,67.8,25.3,30.26,West,276,0.0,0.0,20,0.00,,---,0.00,VWS V13.00,2013-08-30 04:42:00,
2013-08-29 22:47:00,67.5,27.3,30.26,West,274,0.0,0.0,22,0.00,,---,0.00,VWS V13.00,2013-08-30 04:47:00,
2013-08-29 22:52:00,67.3,27.2,30.26,West,269,0.0,0.0,22,0.00,,---,0.00,VWS V13.00,2013-08-30 04:52:00,
2013-08-29 22:57:00,67.1,27.0,30.26,NNW,340,2.2,2.2,22,0.00,,---,0.00,VWS V13.00,2013-08-30 04:57:00,
2013-08-29 23:02:00,66.9,26.9,30.26,West,269,0.0,0.0,22,0.00,,---,0.00,VWS V13.00,2013-08-30 05:02:00,
2013-08-29 23:07:00,67.1,27.0,30.26,NNE,20,2.7,3.1,22,0.00,,---,0.00,VWS V13.00,2013-08-30 05:07:00,
2013-08-29 23:12:00,67.5,27.3,30.26,SE,136,2.7,2.7,22,0.00,,---,0.00,VWS V13.00,2013-08-30 05:12:00,
2013-08-29 23:17:00,67.6,27.5,30.26,SSW,209,2.2,2.7,22,0.00,,---,0.00,VWS V13.00,2013-08-30 05:17:00,
2013-08-29 23:22:00,68.0,25.5,30.26,WNW,283,0.0,2.2,20,0.00,,---,0.00,VWS V13.00,2013-08-30 05:22:00,
2013-08-29 23:28:00,68.4,25.8,30.26,ESE,103,2.7,2.7,20,0.00,,---,0.00,VWS V13.00,2013-08-30 05:28:00,
2013-08-29 23:33:00,68.0,27.8,30.26,WNW,287,2.7,4.0,22,0.00,,---,0.00,VWS V13.00,2013-08-30 05:33:00,
2013-08-29 23:38:00,67.5,27.3,30.26,SSW,200,2.2,3.6,22,0.00,,---,0.00,VWS V13.00,2013-08-30 05:38:00,
2013-08-29 23:43:00,66.6,27.6,30.26,South,187,2.2,3.1,23,0.00,,---,0.00,VWS V13.00,2013-08-30 05:43:00,
2013-08-29 23:48:00,65.8,27.0,30.26,SW,232,0.0,0.0,23,0.00,,---,0.00,VWS V13.00,2013-08-30 05:48:00,
2013-08-29 23:53:00,65.1,27.5,30.26,ENE,77,2.2,2.7,24,0.00,,---,0.00,VWS V13.00,2013-08-30 05:53:00,
2013-08-29 23:58:00,64.4,27.8,30.26,SW,229,0.0,0.0,25,0.00,,---,0.00,VWS V13.00,2013-08-30 05:58:00,